ZL4VM-1 Weather Reports


time (UTC)temp
F
wind
direction
speed
knots
gust
knots
rain 1hr
in
rain 24hr
in
rain mn
in
humidity
%
barometer
mb
20260509123952 51 256 7.8 18.2 0.00 0.00 0.00 85 990.8
20260509123052 51 234 7.8 16.5 0.00 0.00 0.00 84 990.7
20260509122152 51 238 12.2 21.7 0.00 0.00 0.00 84 990.8
20260509121252 51 225 7.8 21.7 0.00 0.00 0.00 84 990.6
20260509120352 51 242 7.0 16.5 0.00 0.00 0.00 84 990.6
20260509114552 51 264 7.0 13.0 0.00 0.00 0.12 84 991.1
20260509113652 52 225 3.5 13.0 0.00 0.00 0.12 84 991.3
20260509111852 52 236 8.7 15.6 0.00 0.00 0.12 83 991.4
20260509110952 52 243 9.6 15.6 0.00 0.00 0.12 84 990.9
20260509110052 52 249 7.0 18.2 0.00 0.00 0.12 84 991.1
20260509105152 52 258 5.2 18.2 0.00 0.00 0.12 84 991.3
20260509104252 52 250 11.3 18.2 0.00 0.00 0.12 84 990.9
20260509103352 52 218 7.8 14.8 0.00 0.00 0.12 85 991.1
20260509102452 52 219 6.1 13.0 0.00 0.00 0.12 86 990.9
20260509101552 52 247 9.6 13.0 0.00 0.00 0.12 87 990.6
20260509100652 52 241 4.3 13.0 0.00 0.00 0.12 86 990.4
20260509095752 52 230 6.1 14.8 0.00 0.00 0.12 86 990.3
20260509094852 52 253 9.6 14.8 0.00 0.00 0.12 87 990.4
20260509093952 52 253 7.8 13.0 0.00 0.00 0.12 87 990.5
20260509093052 52 242 6.1 13.0 0.00 0.00 0.12 87 990.4
20260509092152 52 286 6.1 13.0 0.00 0.00 0.12 86 990.5
20260509091252 52 260 9.6 12.2 0.00 0.00 0.12 86 990.6
20260509090352 52 240 7.0 13.9 0.00 0.00 0.12 86 990.5
20260509084552 52 232 7.0 13.0 0.00 0.00 0.12 86 990.2
20260509082752 52 239 8.7 13.9 0.00 0.00 0.12 87 990.7
20260509081851 52 225 8.7 16.5 0.00 0.00 0.12 87 990.8
20260509080952 52 260 5.2 17.4 0.00 0.00 0.12 87 990.8
20260509080052 52 249 7.8 15.6 0.00 0.00 0.12 86 990.8
20260509075152 53 241 7.0 14.8 0.00 0.00 0.12 86 991.0
20260509073352 53 254 7.0 13.9 0.00 0.00 0.12 86 991.2
20260509072452 53 205 5.2 18.2 0.00 0.00 0.12 86 991.2
20260509070651 53 244 6.1 13.9 0.00 0.00 0.12 85 991.0
20260509064851 54 194 5.2 13.0 0.00 0.01 0.12 81 990.6
20260509063953 54 235 7.8 20.0 0.00 0.01 0.12 79 990.8
20260509063051 54 220 3.5 14.8 0.00 0.01 0.12 76 990.8
20260509062151 55 244 7.8 15.6 0.00 0.01 0.12 75 990.6
20260509061252 55 224 7.0 13.9 0.00 0.01 0.12 76 990.7
20260509060351 54 188 7.8 11.3 0.00 0.01 0.12 81 990.5
20260509055451 54 204 3.5 6.1 0.00 0.01 0.12 85 990.2
20260509053651 55 92 0.9 1.7 0.00 0.01 0.12 84 990.0
20260509052752 55 90 0.0 1.7 0.00 0.01 0.12 86 989.8
20260509050951 56 90 0.0 1.7 0.00 0.01 0.12 87 989.9
20260509050051 56 90 0.0 1.7 0.00 0.01 0.12 86 989.8
20260509045152 56 90 0.0 3.5 0.00 0.01 0.12 87 989.4
20260509044251 57 80 1.7 5.2 0.00 0.01 0.12 86 989.4
20260509043351 57 85 0.9 5.2 0.00 0.01 0.12 80 989.1
20260509042451 58 74 1.7 4.3 0.00 0.01 0.12 75 989.2
20260509041552 58 72 1.7 4.3 0.00 0.01 0.12 74 989.4
20260509035752 59 1 0.9 3.5 0.00 0.01 0.12 66 989.2
20260509034851 60 1 0.9 3.5 0.00 0.01 0.12 64 989.3
20260509033051 61 336 0.9 1.7 0.00 0.01 0.12 63 989.3
20260509032151 61 314 0.0 2.6 0.00 0.01 0.12 62 989.2
20260509031251 61 241 0.9 1.7 0.00 0.01 0.12 59 989.3
20260509030351 61 225 0.9 1.7 0.00 0.01 0.12 56 989.2
20260509024551 62 215 0.9 3.5 0.00 0.01 0.12 54 989.1
20260509022751 62 299 1.7 2.6 0.00 0.01 0.12 54 988.9
20260509020951 61 1 0.0 1.7 0.00 0.01 0.12 59 989.3
20260509020051 61 348 0.0 3.5 0.00 0.01 0.12 63 989.2
20260509015151 61 336 0.9 4.3 0.00 0.01 0.12 57 988.8
20260509014251 61 209 1.7 8.7 0.00 0.01 0.12 52 989.1
20260509013351 61 212 1.7 8.7 0.00 0.01 0.12 50 989.1
20260509012451 62 165 0.0 9.6 0.00 0.01 0.12 53 989.2
20260509011551 63 244 3.5 7.0 0.00 0.01 0.12 47 989.6
20260509010651 64 262 2.6 4.3 0.00 0.01 0.12 51 989.8
20260509005751 63 73 1.7 6.1 0.00 0.01 0.12 61 990.0
20260509004851 62 46 1.7 3.5 0.00 0.01 0.12 65 989.8
20260509003951 58 8 0.9 3.5 0.00 0.01 0.12 71 990.0
20260509002151 58 41 0.9 4.3 0.00 0.01 0.12 65 990.4
20260509001251 59 88 1.7 4.3 0.00 0.01 0.12 61 990.4
20260509000352 60 49 1.7 5.2 0.00 0.01 0.12 59 990.8
20260508235451 59 59 1.7 3.5 0.00 0.01 0.12 61 990.8
20260508234551 61 85 2.6 3.5 0.00 0.01 0.12 54 991.0
20260508233651 61 90 2.6 4.3 0.00 0.01 0.12 53 990.9
20260508232751 61 90 3.5 4.3 0.00 0.01 0.12 53 990.9
20260508230951 61 41 0.9 3.5 0.00 0.01 0.12 57 990.9
20260508230051 61 22 1.7 3.5 0.00 0.01 0.12 57 991.2
20260508225151 61 358 0.9 3.5 0.00 0.01 0.12 59 991.3
20260508224250 59 355 0.9 3.5 0.00 0.01 0.12 64 991.1
20260508223351 57 1 0.0 2.6 0.00 0.01 0.12 66 990.9
20260508222451 55 20 0.9 3.5 0.00 0.01 0.12 67 990.9
20260508221551 55 89 2.6 4.3 0.00 0.01 0.12 65 990.9
20260508220650 55 48 3.5 4.3 0.00 0.01 0.12 67 991.2
20260508215751 54 354 0.0 3.5 0.00 0.01 0.12 68 991.0
20260508214851 53 331 1.7 3.5 0.00 0.01 0.12 70 991.1
20260508213951 52 275 0.9 8.7 0.00 0.01 0.12 68 991.0
20260508213051 52 240 3.5 8.7 0.00 0.01 0.12 70 990.9
20260508212151 51 266 0.9 5.2 0.00 0.01 0.12 71 991.0
20260508211251 51 210 0.9 5.2 0.00 0.01 0.12 74 990.8
20260508210350 50 280 1.7 5.2 0.00 0.01 0.12 74 991.1
20260508205451 50 280 1.7 5.2 0.00 0.01 0.12 76 991.0
20260508204550 50 291 1.7 3.5 0.00 0.01 0.12 76 991.2
20260508203650 49 275 0.0 9.6 0.00 0.01 0.12 76 991.0
20260508202750 49 301 3.5 9.6 0.00 0.01 0.12 76 990.8
20260508201850 49 282 3.5 13.0 0.00 0.01 0.12 75 990.7
20260508200950 50 270 6.1 17.4 0.00 0.01 0.12 73 990.5
20260508200050 50 275 7.0 20.0 0.00 0.01 0.12 73 990.1
20260508195150 50 277 6.1 21.7 0.00 0.01 0.00 73 990.1
20260508194250 50 265 10.4 26.1 0.00 0.01 0.00 77 990.0
20260508193350 50 278 13.0 25.2 0.00 0.01 0.00 80 989.6
20260508192451 50 299 7.8 20.0 0.00 0.01 0.00 84 990.1
20260508190650 50 269 8.7 17.4 0.00 0.01 0.00 85 990.1
20260508185750 50 271 8.7 20.0 0.00 0.01 0.00 87 990.0
20260508184850 50 262 9.6 17.4 0.00 0.01 0.00 86 989.9
20260508183950 50 250 9.6 22.6 0.00 0.01 0.00 87 990.0
20260508183050 50 273 12.2 20.9 0.00 0.01 0.00 94 989.6
20260508182150 51 268 8.7 14.8 0.00 0.01 0.00 98 989.6
20260508181250 50 263 5.2 16.5 0.00 0.01 0.00 99 989.6
20260508180350 50 252 7.0 21.7 0.00 0.01 0.00 99 989.4
20260508175450 51 239 3.5 12.2 0.00 0.01 0.00 99 989.6
20260508174550 51 235 3.5 12.2 0.00 0.01 0.00 99 989.2
20260508173650 51 270 5.2 13.9 0.00 0.01 0.00 99 989.0
20260508172751 51 222 5.2 13.9 0.00 0.01 0.00 99 988.9
20260508171850 51 223 7.0 13.0 0.00 0.01 0.00 98 988.7
20260508170950 52 246 7.0 13.0 0.00 0.01 0.00 95 988.5
20260508170050 52 250 6.1 13.9 0.00 0.01 0.00 94 988.3
20260508165150 52 261 7.8 13.0 0.00 0.01 0.00 93 988.2
20260508164250 52 251 8.7 13.0 0.00 0.01 0.00 92 987.8
20260508163350 53 268 6.1 16.5 0.00 0.01 0.00 90 987.8
20260508161550 53 270 7.0 13.0 0.00 0.01 0.00 91 987.4
20260508160650 53 267 7.0 11.3 0.00 0.01 0.00 92 987.3
20260508155750 53 275 5.2 14.8 0.00 0.01 0.00 92 986.9
20260508154850 53 289 7.0 11.3 0.00 0.01 0.00 93 986.9
20260508153950 53 252 5.2 13.0 0.00 0.01 0.00 93 986.6
20260508153050 53 265 6.1 13.0 0.00 0.01 0.00 93 986.7
20260508152150 53 251 5.2 13.0 0.00 0.01 0.00 93 987.0
20260508151250 53 269 7.0 13.0 0.00 0.01 0.00 93 986.7
20260508150350 53 255 3.5 10.4 0.00 0.01 0.00 94 986.7
20260508145450 53 274 5.2 11.3 0.00 0.01 0.00 94 986.4
20260508144550 53 281 7.8 13.0 0.00 0.01 0.00 95 986.5
20260508143650 53 252 7.8 13.0 0.00 0.01 0.00 96 986.6
20260508142750 53 271 5.2 12.2 0.00 0.01 0.00 97 986.5
20260508141850 53 258 3.5 11.3 0.00 0.01 0.00 98 986.5
20260508140950 53 275 6.1 9.6 0.00 0.01 0.00 98 986.2
20260508140050 53 247 3.5 11.3 0.00 0.01 0.00 98 986.4
20260508135150 53 260 6.1 13.0 0.00 0.01 0.00 98 986.2
20260508133350 53 240 4.3 13.0 0.00 0.01 0.00 98 986.4
20260508132450 53 220 4.3 12.2 0.00 0.01 0.00 98 986.5
20260508131550 53 259 6.1 15.6 0.00 0.01 0.00 98 986.3
20260508130651 53 248 6.1 15.6 0.00 0.01 0.00 98 986.3
20260508125750 53 279 7.8 14.8 0.00 0.01 0.00 98 986.3